FW5313 Weather Reports


Display with metric or nautical units.
time (UTC)temp
F
wind
direction
speed
MPH
gust
MPH
rain 1hr
in
rain 24hr
in
rain mn
in
humidity
%
barometer
mb
20260504231552 61 193 3.0 8.0 0.00 0.00 0.00 46 1004.2
20260504231045 61 193 0.0 4.0 0.00 0.00 0.00 47 1004.2
20260504230545 61 193 1.0 5.0 0.00 0.00 0.00 47 1004.2
20260504230112 62 283 1.0 5.0 0.00 0.00 0.00 45 1004.0
20260504225548 62 203 1.0 6.0 0.00 0.00 0.00 43 1004.0
20260504225049 62 221 1.0 6.0 0.00 0.00 0.00 42 1003.9
20260504224606 63 270 2.0 5.0 0.00 0.00 0.00 42 1004.0
20260504224045 63 230 1.0 14.0 0.00 0.00 0.00 44 1003.9
20260504223545 63 257 3.0 14.0 0.00 0.00 0.00 43 1003.8
20260504223051 63 286 2.0 6.0 0.00 0.00 0.00 42 1003.8
20260504222545 63 199 1.0 5.0 0.00 0.00 0.00 42 1003.8
20260504222044 63 193 2.0 5.0 0.00 0.00 0.00 42 1003.9
20260504221550 64 240 2.0 5.0 0.00 0.00 0.00 42 1003.9
20260504221045 64 258 1.0 4.0 0.00 0.00 0.00 45 1003.8
20260504220545 64 252 1.0 4.0 0.00 0.00 0.00 44 1004.0
20260504220100 64 253 2.0 4.0 0.00 0.00 0.00 41 1003.8
20260504215545 64 229 2.0 6.0 0.00 0.00 0.00 41 1003.7
20260504215043 64 227 2.0 6.0 0.00 0.00 0.00 40 1003.7
20260504214550 64 231 3.0 11.0 0.00 0.00 0.00 40 1003.6
20260504214044 64 175 2.0 11.0 0.00 0.00 0.00 43 1003.6
20260504213543 64 178 3.0 11.0 0.00 0.00 0.00 43 1003.6
20260504213051 64 178 2.0 7.0 0.00 0.00 0.00 42 1003.6
20260504212544 64 178 2.0 7.0 0.00 0.00 0.00 41 1003.5
20260504212044 64 178 3.0 7.0 0.00 0.00 0.00 41 1003.6
20260504211557 65 178 3.0 8.0 0.00 0.00 0.00 41 1003.5
20260504211044 65 178 1.0 8.0 0.00 0.00 0.00 41 1003.5
20260504210545 64 178 4.0 13.0 0.00 0.00 0.00 43 1003.6
20260504210101 64 210 4.0 13.0 0.00 0.00 0.00 42 1003.6
20260504205544 64 259 2.0 9.0 0.00 0.00 0.00 45 1003.6
20260504205044 63 270 4.0 9.0 0.00 0.00 0.00 44 1003.6
20260504204550 64 265 2.0 7.0 0.00 0.00 0.00 44 1003.8
20260504204045 64 193 4.0 7.0 0.00 0.00 0.00 43 1003.8
20260504203545 63 178 2.0 12.0 0.00 0.00 0.00 45 1003.7
20260504203049 63 178 4.0 12.0 0.00 0.00 0.00 44 1003.7
20260504202545 63 178 2.0 6.0 0.00 0.00 0.00 47 1003.9
20260504202046 63 166 3.0 9.0 0.00 0.00 0.00 45 1003.8
20260504201549 63 226 1.0 10.0 0.00 0.00 0.00 45 1003.8
20260504201043 64 193 4.0 10.0 0.00 0.00 0.00 43 1003.8
20260504200543 65 178 2.0 6.0 0.00 0.00 0.00 44 1003.9
20260504200101 65 178 3.0 9.0 0.00 0.00 0.00 44 1003.7
20260504195544 64 178 2.0 10.0 0.00 0.00 0.00 45 1003.7
20260504195043 64 178 4.0 10.0 0.00 0.00 0.00 45 1003.8
20260504194551 63 178 5.0 10.0 0.00 0.00 0.00 44 1004.0
20260504194044 64 178 5.0 10.0 0.00 0.00 0.00 45 1004.1
20260504193545 63 178 3.0 10.0 0.00 0.00 0.00 45 1003.7
20260504193050 63 235 3.0 10.0 0.00 0.00 0.00 46 1003.9
20260504192545 62 155 4.0 8.0 0.00 0.00 0.00 49 1004.0
20260504192048 62 178 3.0 9.0 0.00 0.00 0.00 49 1004.0
20260504191605 62 178 3.0 9.0 0.00 0.00 0.00 44 1004.2
20260504191045 62 276 4.0 8.0 0.00 0.00 0.00 47 1004.4
20260504190542 63 193 3.0 7.0 0.00 0.00 0.00 45 1004.2
20260504190049 63 193 4.0 7.0 0.00 0.00 0.00 47 1004.2
20260504185544 62 202 3.0 7.0 0.00 0.00 0.00 45 1004.3
20260504185042 63 203 2.0 10.0 0.00 0.00 0.00 46 1004.4
20260504184549 62 277 2.0 10.0 0.00 0.00 0.00 47 1004.4
20260504184043 62 278 4.0 9.0 0.00 0.00 0.00 47 1004.5
20260504183543 62 247 3.0 10.0 0.00 0.00 0.00 47 1004.4
20260504183050 62 283 5.0 12.0 0.00 0.00 0.00 46 1004.5
20260504182542 63 274 4.0 12.0 0.00 0.00 0.00 48 1004.6
20260504182043 62 272 4.0 14.0 0.00 0.00 0.00 47 1004.7
20260504181553 62 245 5.0 14.0 0.00 0.00 0.00 48 1004.6
20260504181042 62 139 4.0 10.0 0.00 0.00 0.00 47 1004.7
20260504180544 61 167 4.0 10.0 0.00 0.00 0.00 51 1004.4
20260504180051 62 178 3.0 9.0 0.00 0.00 0.00 47 1004.5
20260504175543 62 178 3.0 8.0 0.00 0.00 0.00 46 1004.6
20260504175045 62 193 3.0 8.0 0.00 0.00 0.00 48 1004.7
20260504174556 62 250 3.0 15.0 0.00 0.00 0.00 50 1004.6
20260504174043 61 261 3.0 15.0 0.00 0.00 0.00 48 1004.7
20260504173545 60 292 3.0 8.0 0.00 0.00 0.00 48 1004.8
20260504173054 60 278 3.0 8.0 0.00 0.00 0.00 51 1004.8
20260504172542 60 281 3.0 8.0 0.00 0.00 0.00 53 1004.9
20260504172043 59 193 3.0 10.0 0.00 0.00 0.00 50 1004.7
20260504171552 59 193 4.0 10.0 0.00 0.00 0.00 54 1004.8
20260504171042 59 193 3.0 7.0 0.00 0.00 0.00 53 1005.0
20260504170544 58 227 2.0 6.0 0.00 0.00 0.00 52 1004.9
20260504151047 51 195 2.0 7.0 0.00 0.00 0.00 59 1005.4
20260504150544 51 255 2.0 7.0 0.00 0.00 0.00 59 1005.3
20260504141045 53 240 2.0 5.0 0.00 0.00 0.00 56 1004.9
20260504140546 52 248 2.0 11.0 0.00 0.00 0.00 60 1004.9
20260504130547 50 255 2.0 8.0 0.00 0.00 0.00 60 1005.1
20260504120119 47 201 1.0 6.0 0.00 0.00 0.00 69 1005.5
20260504110542 43 203 0.0 2.0 0.00 0.00 0.00 84 1005.7
20260504100545 41 193 0.0 2.0 0.00 0.00 0.00 87 1006.0
20260504081554 41 247 0.0 3.0 0.00 0.00 0.00 85 1005.7
20260504081050 41 69 1.0 3.0 0.00 0.00 0.00 86 1005.8
20260504080545 41 178 1.0 2.0 0.00 0.00 0.00 86 1005.9
20260504050547 41 178 0.0 5.0 0.00 0.00 0.00 60 1006.3
20260504045550 41 178 1.0 5.0 0.00 0.00 0.00 58 1006.5
20260504045047 41 158 2.0 4.0 0.00 0.00 0.00 57 1006.5
20260504044551 41 0 0.0 4.0 0.00 0.00 0.00 57 1006.4
20260504044047 41 266 0.0 7.0 0.00 0.00 0.00 57 1006.6
20260504043547 41 193 1.0 7.0 0.00 0.00 0.00 58 1006.5
20260504043110 41 193 0.0 3.0 0.00 0.00 0.00 58 1006.6
20260504042546 40 193 0.0 3.0 0.00 0.00 0.00 59 1006.6
20260504042048 40 178 0.0 5.0 0.00 0.00 0.00 59 1006.7
20260504041548 40 146 0.0 5.0 0.00 0.00 0.00 59 1006.7
20260504041045 39 0 1.0 5.0 0.00 0.00 0.00 57 1006.6
20260504040548 39 142 0.0 2.0 0.00 0.00 0.00 58 1006.6
20260504040058 39 0 0.0 2.0 0.00 0.00 0.00 63 1006.6
20260504035544 39 0 0.0 2.0 0.00 0.00 0.00 59 1006.7
20260504035047 39 94 0.0 2.0 0.00 0.00 0.00 59 1006.6
20260504034554 38 119 0.0 1.0 0.00 0.00 0.00 61 1006.6
20260504034049 39 0 0.0 1.0 0.00 0.00 0.00 62 1006.7
20260504033547 39 72 1.0 2.0 0.00 0.00 0.00 56 1006.6
20260504033128 38 72 0.0 2.0 0.00 0.00 0.00 59 1006.6
20260504032547 38 0 0.0 2.0 0.00 0.00 0.00 59 1006.6
20260504032047 38 72 1.0 1.0 0.00 0.00 0.00 63 1006.6
20260504031558 38 72 0.0 2.0 0.00 0.00 0.00 59 1006.5
20260504031050 38 72 1.0 2.0 0.00 0.00 0.00 59 1006.6
20260504030546 38 72 0.0 2.0 0.00 0.00 0.00 58 1006.6
20260504030115 38 72 1.0 2.0 0.00 0.00 0.00 58 1006.7
20260504025547 38 72 0.0 2.0 0.00 0.00 0.00 53 1006.7
20260504025047 38 73 1.0 2.0 0.00 0.00 0.00 59 1006.8
20260504024556 38 75 0.0 2.0 0.00 0.00 0.00 57 1006.8
20260504024046 38 75 1.0 2.0 0.00 0.00 0.00 58 1006.9
20260504023546 38 0 1.0 2.0 0.00 0.00 0.00 58 1006.8
20260504023057 38 0 0.0 2.0 0.00 0.00 0.00 58 1006.8
20260504022547 38 82 1.0 2.0 0.00 0.00 0.00 57 1006.9
20260504022050 38 82 0.0 2.0 0.00 0.00 0.00 60 1007.0
20260504021552 38 82 0.0 2.0 0.00 0.00 0.00 58 1006.8
20260504021048 38 82 1.0 2.0 0.00 0.00 0.00 60 1006.9
20260504020547 38 63 0.0 2.0 0.00 0.00 0.00 60 1006.9
20260504020057 37 0 0.0 3.0 0.00 0.00 0.00 60 1006.9
20260504015544 38 70 0.0 4.0 0.00 0.00 0.00 60 1006.9
20260504015044 38 300 0.0 4.0 0.00 0.00 0.00 59 1007.0
20260504014554 38 231 0.0 4.0 0.00 0.00 0.00 57 1007.0
20260504014043 38 178 0.0 3.0 0.00 0.00 0.00 60 1007.0
20260504013549 38 178 0.0 1.0 0.00 0.00 0.00 60 1007.0
20260504013053 38 86 0.0 2.0 0.00 0.00 0.00 62 1006.9
20260504012544 38 84 0.0 2.0 0.00 0.00 0.00 62 1007.0
20260504012044 38 286 0.0 2.0 0.00 0.00 0.00 62 1006.9
20260504011553 37 0 0.0 1.0 0.00 0.00 0.00 64 1006.7
20260504011046 37 0 0.0 1.0 0.00 0.00 0.00 62 1006.8
20260504010546 37 193 0.0 1.0 0.00 0.00 0.00 65 1006.7
20260504010059 37 0 0.0 1.0 0.00 0.00 0.00 65 1006.7
20260504005547 37 0 0.0 1.0 0.00 0.00 0.00 65 1006.6
20260504005104 37 0 0.0 1.0 0.00 0.00 0.00 65 1006.6
20260504004548 37 0 0.0 1.0 0.00 0.00 0.00 65 1006.5
20260504004046 37 2 0.0 1.0 0.00 0.00 0.00 64 1006.4
20260504003545 37 72 0.0 1.0 0.00 0.00 0.00 65 1006.3
20260504003047 37 65 0.0 2.0 0.00 0.00 0.00 65 1006.4
20260504002546 38 0 0.0 2.0 0.00 0.00 0.00 66 1006.4
20260504002048 38 65 0.0 1.0 0.00 0.00 0.00 65 1006.3
20260504001556 38 65 0.0 1.0 0.00 0.00 0.00 63 1006.3
20260504001048 39 0 0.0 1.0 0.00 0.00 0.00 62 1006.2
20260504000547 39 0 0.0 1.0 0.00 0.00 0.00 61 1006.2
20260504000058 39 77 0.0 1.0 0.00 0.00 0.00 63 1006.2
20260503235546 40 0 0.0 1.0 0.00 0.00 0.00 61 1006.2
20260503235046 41 286 0.0 1.0 0.00 0.00 0.00 59 1006.1
20260503234550 41 0 0.0 1.0 0.00 0.00 0.00 61 1006.2
20260503234046 42 0 0.0 2.0 0.00 0.00 0.00 57 1006.1
20260503233546 42 0 1.0 2.0 0.00 0.00 0.00 54 1006.0
20260503233052 43 218 0.0 2.0 0.00 0.00 0.00 57 1006.1
20260503232548 43 299 0.0 3.0 0.00 0.00 0.00 55 1006.1
20260503232045 43 276 1.0 4.0 0.00 0.00 0.00 56 1006.1